www.pogodaiklimat.ru

Погода и климат >> Архив погоды >> Россия >> Якутия >> Верхневилюйск


ПОГОДА в Верхневилюйске

  • Прогноз погоды в Верхневилюйске
  • Монитор погоды в Верхневилюйске

АРХИВ ПОГОДЫ в Верхневилюйске

Время (UTC), дата Ветер
(напр.,м/с)
 
Видим.   Явления Облачность Т
(С)
Тd
(С)
f
(%)
Тe
(С)
Тes
(С)
Комфортность P
(гПа)
Po
(гПа)
Тmin
(С)
Tmax
(С)
R
(мм)
R24
(мм)
S
(см)
21 16.03 СВ 2 20 км 10/0
[Cs]
-19.4 -22.7 75 -25 -25 1009.1 993.5
00 17.03 СВ 2 50 км 10/0
[Cs]
-19.6 -22.9 75 -25 -25 1010.7 995.1 -20.3 0.3 35
03 17.03 В 3 50 км 10/0
[Cs]
-13.8 -17.3 75 -20 -17 1011.7 996.5
06 17.03 СВ 3 50 км 10/0
[Cs]
-10.5 -16.8 60 -16 -14 1012.9 997.8
09 17.03 СВ 2 50 км 4/0
[Ci fib]
-9.8 -16.9 56 -14 -14 1014.8 999.8
12 17.03 СЗ 1 20 км ясно -20.5 -23.8 75 -24 -24 1017.8 1002.0 -9.5
15 17.03 штиль 0 20 км ясно -27.5 -29.9 80 -28 -28 1018.9 1002.7
18 17.03 З 1 20 км ясно -30.8 -33.8 75 -35 -35 опасность
обморожения
1019.7 1003.1
21 17.03 штиль 0 20 км ясно -31.9 -35.0 74 -32 -32 опасность
обморожения
1020.1 1003.5
00 18.03 З 2 50 км 4/0
[Ci fib]
-25.9 -28.4 79 -33 -32 опасность
обморожения
1020.2 1004.1 -32.8 35
03 18.03 З 2 50 км 8/0
[Ci]
-19.6 -23.7 70 -25 -22 1020.0 1004.3
06 18.03 З 4 50 км 8/0
[Ci fib]
-15.1 -21.1 60 -23 -21 1019.6 1004.1
09 18.03 З 3 50 км ясно -14.2 -22.4 50 -21 -20 1019.6 1004.1
12 18.03 З 2 20 км ясно -26.2 -29.4 74 -33 -33 опасность
обморожения
1021.3 1005.1 -14.0
15 18.03 З 1 20 км ясно -29.9 -32.3 79 -34 -34 опасность
обморожения
1021.7 1005.3
18 18.03 З 1 20 км 1/0
[Ci fib]
-32.9 -35.7 76 -37 -37 опасность
обморожения
1022.2 1005.6
21 18.03 З 1 20 км ясно -35.1 -38.0 75 -40 -40 опасность
обморожения
1022.7 1005.9
00 19.03 СЗ 2 50 км ясно -29.1 -31.5 80 -36 -35 опасность
обморожения
1023.5 1007.1 -35.6 35
03 19.03 С 2 50 км ясно -21.5 -26.3 65 -28 -23 1022.8 1007.0
06 19.03 СЗ 1 50 км ясно -15.1 -22.1 55 -18 -14 1022.6 1007.1
09 19.03 З 2 50 км ясно -14.5 -21.5 55 -19 -19 1022.5 1007.0
12 19.03 штиль 0 20 км ясно -25.9 -29.1 74 -26 -26 1024.1 1007.9 -13.3
15 19.03 штиль 0 20 км ясно -31.5 -34.5 75 -32 -32 опасность
обморожения
1024.9 1008.2
18 19.03 штиль 0 20 км ясно -34.2 -37.8 70 -34 -34 опасность
обморожения
1025.3 1008.4
21 19.03 штиль 0 20 км ясно -35.5 -39.0 70 -36 -36 опасность
обморожения
1025.5 1008.6
00 20.03 штиль 0 50 км 4/0
[Ci fib]
-34.3 -38.5 66 -34 -33 опасность
обморожения
1026.1 1009.2 -36.9 35
03 20.03 СВ 1 50 км ясно -18.4 -24.3 60 -21 -16 1024.9 1009.1
06 20.03 С 2 50 км ясно -12.6 -20.9 50 -17 -14 1024.2 1008.8
09 20.03 С 1 50 км ясно -12.0 -21.5 45 -14 -14 1023.9 1008.6
12 20.03 Ю 1 20 км ясно -21.6 -26.4 65 -25 -25 1024.9 1009.0 -11.2
15 20.03 штиль 0 20 км ясно -29.3 -31.7 80 -29 -29 1025.5 1009.1
18 20.03 штиль 0 20 км ясно -32.5 -35.5 74 -33 -33 опасность
обморожения
1025.6 1008.9
21 20.03 штиль 0 20 км ясно -34.1 -37.8 69 -34 -34 опасность
обморожения
1025.8 1008.9
00 21.03 штиль 0 50 км ясно -31.6 -35.9 66 -32 -30 опасность
обморожения
1025.8 1009.1 -35.8 35
03 21.03 С 1 50 км ясно -18.4 -23.4 65 -21 -16 1025.1 1009.3
06 21.03 СВ 1 50 км ясно -10.4 -21.4 40 -12 -8 1023.9 1008.6
09 21.03 С 1 50 км ясно -10.1 -22.7 35 -12 -12 1023.8 1008.5
12 21.03 штиль 0 20 км ясно -23.2 -26.4 75 -23 -23 1024.6 1008.6 -9.7
15 21.03 штиль 0 20 км ясно -28.4 -32.2 70 -28 -28 1024.3 1007.9
18 21.03 ЮВ 1 20 км ясно -29.7 -33.5 69 -34 -34 опасность
обморожения
1023.4 1007.0
21 21.03 Ю 1 20 км ясно -23.5 -26.7 75 -27 -27 1020.9 1004.9
00 22.03 Ю 3 50 км 3/0
[Ci fib]
-16.6 -21.6 65 -24 -22 1018.2 1002.6 -30.3 35
03 22.03 Ю 4 50 км 8/0
[Ci]
-6.6 -15.6 49 -13 -10 1013.9 999.0
06 22.03 ЮЗ 5
{10}
50 км позёмок 10/0
[Cs]
-4.0 -12.8 50 -10 -9 1009.7 995.1
09 22.03 ЮЗ 5
{11}
10 км слаб. снег {метель} 10/0
[As op]
-4.1 -10.0 63 -11 -11 1006.8 992.2
12 22.03 ЮЗ 4
{10}
10 км слаб. снег {метель} 10/0
[As op]
-4.9 -6.6 88 -11 -11 1003.8 989.1 -3.8 0.5
15 22.03 Ю 3 10 км слаб. снег {метель} 10/0
[As op]
-5.1 -6.8 88 -11 -11 1001.0 986.4
18 22.03 Ю 2 10 км слаб. снег {метель} 10/0
[As op]
-5.6 -7.0 90 -10 -10 998.4 983.8
21 22.03 Ю 2 10 км слаб. снег 10/0
[As op]
-6.4 -7.2 94 -11 -11 996.0 981.4
00 23.03 Ю 2 10 км слаб. снег 10/0
[As op]
-5.7 -6.8 92 -10 -10 994.3 979.8 -6.4 1 35
03 23.03 С 1 10 км слаб. снег 10/0
[As op]
-3.4 -4.8 90 -6 -5 993.4 979.0
06 23.03 С 1 4000 м слаб. снег 10/4 300 м
[Frnb As op]
-2.8 -4.8 86 -5 -5 993.5 979.1
09 23.03 С 1 10 км слаб. снег 10/0
[As op]
-3.2 -4.9 88 -6 -5 994.5 980.5
12 23.03 В 3 2000 м снег 10/8 270 м
[Frnb As op]
-7.2 -8.1 93 -13 -13 996.7 982.1 -0.4 2
15 23.03 СВ 3 2000 м снег 10/8 300 м
[Frnb As op]
-10.8 -12.1 90 -17 -17 999.5 984.6
18 23.03 С 3 10 км слаб. снег 10/0
[As op]
-13.6 -14.9 90 -20 -20 1001.7 986.7

 

Местоположение метеостанции Верхневилюйск (Якутия, Россия): широта 63.45 долгота 120.20 высота над уровнем моря 115 м.

В архиве по умолчанию представлена погода в Верхневилюйске за последнюю неделю. Архивные данные за месяц целиком и за предыдущие месяцы, начиная с января 2011 года, Вы можете получить, выбрав интересующий диапазон дат из раскрывающегося списка и нажав кнопку "Ввод!".


*Определитесь, кто Вы:
робот инопланетянин человек

Внимание! Время в таблицах - всемирное. Для получения местного времени необходимо прибавить поправку, которая равна 9 ч.

Смотрите также архив погоды в соседних городах и на ближайших метеорологических станциях:

Погода в Вилюйске (Якутия, Россия) (78 км)
Погода в Нюрбе (Якутия, Россия) (97 км)
Погода в Чумпуруке (Якутия, Россия) (184 км)
Погода в Сунтаре (Якутия, Россия) (194 км)
Погода в Хатырык-Хомо (Якутия, Россия) (233 км)
Погода в Крестяхе (Якутия, Россия) (246 км)
Погода в Тонгулахе (Якутия, Россия) (278 км)
Погода в Бестяхской Звероферме (Якутия, Россия) (278 км)
Погода в Килиере (Якутия, Россия) (282 км)
Погода в Эйке (Якутия, Россия) (316 км)

Пояснения к столбцам:

Ветер - указаны скорость ветра в м/с - средняя за 10 мин, порывы в срок и между сроками (в фигурных скобках) и направление, откуда дует ветер: С - северный, СВ - северо-восточный, В - восточный, ЮВ - юго-восточный, Ю - южный, ЮЗ - юго-западный, З - западный, СЗ - северо-западный.
Видимость - горизонтальная дальность видимости в метрах или километрах. При видимости от 1 до 10 км при отсутствии осадков обычно наблюдается дымка, при ухудшении видимости до 1 км и менее - туман. В сухую погоду видимость может ухудшаться дымом, пылью или мглою.
Явления - указаны атмосферные явления, наблюдавшиеся в срок или в последний час перед сроком; фигурными скобками обозначены явления, наблюдавшиеся между сроками (за 1-3 часа до срока); квадратными скобками обозначены град или гололедные отложения с указанием их диаметра в мм.
Облачность - указаны через наклонную черту общая и нижняя облачность в баллах и высота нижней границы облаков в метрах; квадратными скобками обозначены формы облаков: Ci - перистые, Cs - перисто-слоистые, Cc - перисто-кучевые, Ac - высококучевые, As - высокослоистые, Sc - слоисто-кучевые, Ns - слоисто-дождевые, Cu - кучевые, Cb - кучево-дождевые. Подробнее классификацию облаков см. в Атласе облаков (PDF).
T - Температура воздуха - температура, измеренная на высоте 2 м над землей.
Td - Температура точки росы - температура, при понижении до которой содержащийся в воздухе водяной пар достигнет насыщения.
f - Относительная влажность воздуха - влажноcть воздуха, измеренная на высоте 2 м над землей.
Te - Эффективная температура - температура, которую ощущает одетый по сезону человек в тени. Характеристика душности погоды. При расчете учитывается влияние влажности воздуха и скорости ветра на теплоощущения человека.
Tes - Эффективная температура на солнце - температура, которую ощущает человек, с поправкой на солнечный нагрев. Характеристика знойности погоды. Зависит от высоты солнца над горизонтом, облачности и скорости ветра. Ночью, в пасмурную погоду, а также при ветре 12 м/с и более поправка равна нулю.
P - Атмосферное давление - приведенное к уровню моря атмосферное давление.
Po - Атмосферное давление - измеренное на уровне метеостанции атмосферное давление.
Tmin - Минимальная температура - минимум температуры воздуха на высоте 2 м над землей.
Tmax - Максимальная температура - максимум температуры воздуха на высоте 2 м над землей.
R - Количество осадков - Количество выпавших осадков за период времени, мм. При наведении курсора мыши на число - период времени, за который выпало указанное количество осадков.
R24 - Количество осадков - Количество выпавших осадков за 24 часа, мм.
S - Снежный покров - Высота снежного покрова, см. При наведении курсора мыши на число - состояние снежного покрова и степень покрытия местности в баллах.